TAP11VP LEZL-LPPT

Flight info

Callsign TAP11VP
Flight time 0h 38m
Altitude 34000
Route ONUBA DCT NAPES DCT OSLEP DCT MINTA DCT VATZI
Aircraft A320/M-SDE3FGHIRWY/LB1

Departure

Time 2026-04-14 21:09
Airport Seville Airport (LEZL)

Arrival

Time 2026-04-14 21:47
Airport Lisbon Humberto Delgado Airport (LPPT)
Time Latitude Longitude Altitude Speed Heading
2026-04-14 20:42 37.42381 -5.89736 94 ft 0 kts 342°
2026-04-14 20:59 37.42377 -5.89735 94 ft 3 kts 342°
2026-04-14 20:59 37.42352 -5.89725 94 ft 4 kts 346°
2026-04-14 21:00 37.42326 -5.89719 94 ft 4 kts 359°
2026-04-14 21:00 37.42299 -5.89722 94 ft 4 kts 16°
2026-04-14 21:00 37.42275 -5.89736 93 ft 4 kts 36°
2026-04-14 21:00 37.42255 -5.89758 94 ft 4 kts 52°
2026-04-14 21:01 37.42240 -5.89786 96 ft 4 kts 53°
2026-04-14 21:01 37.42233 -5.89798 94 ft 0 kts 44°
2026-04-14 21:03 37.42239 -5.89789 94 ft 5 kts 44°
2026-04-14 21:03 37.42262 -5.89755 94 ft 5 kts 60°
2026-04-14 21:03 37.42260 -5.89717 94 ft 5 kts 117°
2026-04-14 21:03 37.42228 -5.89673 94 ft 10 kts 134°
2026-04-14 21:04 37.42181 -5.89613 95 ft 8 kts 134°
2026-04-14 21:04 37.42141 -5.89562 96 ft 10 kts 134°
2026-04-14 21:04 37.42075 -5.89477 98 ft 16 kts 134°
2026-04-14 21:04 37.42001 -5.89381 99 ft 14 kts 133°
2026-04-14 21:05 37.41983 -5.89276 100 ft 12 kts 90°
2026-04-14 21:05 37.41983 -5.89175 100 ft 13 kts 90°
2026-04-14 21:05 37.41983 -5.89038 101 ft 18 kts 90°
2026-04-14 21:05 37.41984 -5.88854 102 ft 24 kts 89°
2026-04-14 21:06 37.41985 -5.88640 104 ft 25 kts 90°
2026-04-14 21:06 37.41986 -5.88414 105 ft 27 kts 90°
2026-04-14 21:06 37.41986 -5.88176 106 ft 28 kts 90°
2026-04-14 21:06 37.41987 -5.87926 107 ft 29 kts 90°
2026-04-14 21:07 37.41988 -5.87690 109 ft 21 kts 90°
2026-04-14 21:07 37.41977 -5.87514 110 ft 19 kts 108°
2026-04-14 21:07 37.41887 -5.87427 115 ft 16 kts 181°
2026-04-14 21:07 37.41815 -5.87496 116 ft 14 kts 242°
2026-04-14 21:08 37.41800 -5.87581 115 ft 0 kts 270°
2026-04-14 21:08 37.41800 -5.87587 115 ft 0 kts 269°
2026-04-14 21:08 37.41800 -5.87597 115 ft 7 kts 269°
2026-04-14 21:08 37.41798 -5.87903 111 ft 72 kts 270°
2026-04-14 21:09 37.41795 -5.88823 104 ft 135 kts 270°
2026-04-14 21:09 37.41797 -5.90182 357 ft 162 kts 271°
2026-04-14 21:09 37.41902 -5.91583 1089 ft 161 kts 280°
2026-04-14 21:09 37.42116 -5.92994 1676 ft 172 kts 284°
2026-04-14 21:10 37.42382 -5.94566 2046 ft 195 kts 283°
2026-04-14 21:10 37.42243 -5.96378 2420 ft 226 kts 252°
2026-04-14 21:10 37.41695 -5.98323 2898 ft 250 kts 255°
2026-04-14 21:10 37.41215 -6.00508 3576 ft 265 kts 257°
2026-04-14 21:11 37.40757 -6.02783 4518 ft 270 kts 257°
2026-04-14 21:11 37.40297 -6.05089 5491 ft 274 kts 256°
2026-04-14 21:11 37.39819 -6.07431 6458 ft 278 kts 256°
2026-04-14 21:11 37.39322 -6.09803 7367 ft 282 kts 255°
2026-04-14 21:12 37.38809 -6.12201 8293 ft 285 kts 256°
2026-04-14 21:12 37.38289 -6.14611 9246 ft 287 kts 256°
2026-04-14 21:12 37.37765 -6.17014 10171 ft 290 kts 256°
2026-04-14 21:12 37.37218 -6.19519 10679 ft 308 kts 256°
2026-04-14 21:13 37.36619 -6.22255 10965 ft 333 kts 256°
2026-04-14 21:13 37.35985 -6.25141 11359 ft 350 kts 256°
2026-04-14 21:13 37.35329 -6.28119 12035 ft 357 kts 256°
2026-04-14 21:14 37.33997 -6.34167 13517 ft 366 kts 257°
2026-04-14 21:14 37.33311 -6.37266 14235 ft 371 kts 257°
2026-04-14 21:14 37.32616 -6.40402 14893 ft 375 kts 257°
2026-04-14 21:14 37.31914 -6.43570 15557 ft 378 kts 257°
2026-04-14 21:15 37.31203 -6.46774 16193 ft 382 kts 257°
2026-04-14 21:15 37.30483 -6.50006 16845 ft 386 kts 257°
2026-04-14 21:15 37.29757 -6.53267 17485 ft 390 kts 257°
2026-04-14 21:15 37.29022 -6.56568 18113 ft 394 kts 257°
2026-04-14 21:16 37.28282 -6.59888 18702 ft 397 kts 257°
2026-04-14 21:16 37.27531 -6.63247 19237 ft 400 kts 257°
2026-04-14 21:16 37.26779 -6.66622 19772 ft 403 kts 257°
2026-04-14 21:16 37.26015 -6.70031 20309 ft 406 kts 257°
2026-04-14 21:17 37.25245 -6.73456 20843 ft 409 kts 257°
2026-04-14 21:17 37.24474 -6.76905 21373 ft 411 kts 258°
2026-04-14 21:17 37.23758 -6.80398 21887 ft 414 kts 259°
2026-04-14 21:17 37.23098 -6.83922 22393 ft 416 kts 260°
2026-04-14 21:18 37.22465 -6.87477 22902 ft 418 kts 260°
2026-04-14 21:18 37.21832 -6.91055 23409 ft 421 kts 260°
2026-04-14 21:18 37.21184 -6.94650 23884 ft 424 kts 260°
2026-04-14 21:18 37.20518 -6.98264 24289 ft 427 kts 259°
2026-04-14 21:19 37.19837 -7.01898 24696 ft 429 kts 259°
2026-04-14 21:19 37.19154 -7.05502 25095 ft 431 kts 259°
2026-04-14 21:19 37.18451 -7.09174 25492 ft 433 kts 259°
2026-04-14 21:19 37.17750 -7.12856 25882 ft 435 kts 259°
2026-04-14 21:20 37.17046 -7.16559 26273 ft 437 kts 259°
2026-04-14 21:20 37.16338 -7.20275 26665 ft 439 kts 259°
2026-04-14 21:20 37.15628 -7.24004 27044 ft 441 kts 259°
2026-04-14 21:20 37.14914 -7.27753 27432 ft 443 kts 259°
2026-04-14 21:21 37.14205 -7.31516 27803 ft 444 kts 260°
2026-04-14 21:21 37.13791 -7.35338 28148 ft 443 kts 269°
2026-04-14 21:21 37.13883 -7.39190 28484 ft 442 kts 279°
2026-04-14 21:21 37.14495 -7.42962 28813 ft 442 kts 288°
2026-04-14 21:22 37.15572 -7.46567 29150 ft 443 kts 294°
2026-04-14 21:22 37.16745 -7.50142 29461 ft 445 kts 293°
2026-04-14 21:22 37.17915 -7.53751 29777 ft 447 kts 293°
2026-04-14 21:22 37.19079 -7.57368 30092 ft 449 kts 293°
2026-04-14 21:23 37.20243 -7.60996 30487 ft 448 kts 292°
2026-04-14 21:23 37.21405 -7.64619 30862 ft 447 kts 292°
2026-04-14 21:23 37.22550 -7.68187 31247 ft 445 kts 292°
2026-04-14 21:23 37.23704 -7.71784 31635 ft 444 kts 292°
2026-04-14 21:24 37.24873 -7.75424 32027 ft 443 kts 292°
2026-04-14 21:24 37.26023 -7.79004 32411 ft 442 kts 292°
2026-04-14 21:24 37.27168 -7.82576 32825 ft 440 kts 292°
2026-04-14 21:24 37.28295 -7.86094 33215 ft 439 kts 292°
2026-04-14 21:25 37.29435 -7.89650 33614 ft 438 kts 292°
2026-04-14 21:25 37.30569 -7.93192 34009 ft 437 kts 292°
2026-04-14 21:25 37.31697 -7.96735 34229 ft 436 kts 292°
2026-04-14 21:25 37.32824 -8.00280 34272 ft 435 kts 292°
2026-04-14 21:26 37.35065 -8.07343 34283 ft 435 kts 292°
2026-04-14 21:26 37.37304 -8.14411 34283 ft 435 kts 292°
2026-04-14 21:27 37.39536 -8.21484 34286 ft 435 kts 292°
2026-04-14 21:27 37.41757 -8.28523 34284 ft 435 kts 292°
2026-04-14 21:28 37.43989 -8.35595 34153 ft 435 kts 291°
2026-04-14 21:28 37.45104 -8.39140 33887 ft 435 kts 291°
2026-04-14 21:28 37.46220 -8.42690 33614 ft 436 kts 291°
2026-04-14 21:29 37.47336 -8.46247 33113 ft 437 kts 291°
2026-04-14 21:29 37.48450 -8.49807 32550 ft 438 kts 291°
2026-04-14 21:29 37.49569 -8.53388 31998 ft 440 kts 291°
2026-04-14 21:29 37.50674 -8.56931 31471 ft 441 kts 291°
2026-04-14 21:30 37.51798 -8.60539 30939 ft 443 kts 291°
2026-04-14 21:30 37.52927 -8.64158 30406 ft 445 kts 291°
2026-04-14 21:30 37.54062 -8.67803 29821 ft 446 kts 291°
2026-04-14 21:30 37.55196 -8.71457 29225 ft 448 kts 291°
2026-04-14 21:31 37.56329 -8.75124 28649 ft 449 kts 291°
2026-04-14 21:31 37.57457 -8.78778 28062 ft 444 kts 291°
2026-04-14 21:31 37.58822 -8.82222 27500 ft 435 kts 303°
2026-04-14 21:31 37.60726 -8.85084 26959 ft 429 kts 316°
2026-04-14 21:32 37.63103 -8.87307 26422 ft 423 kts 329°
2026-04-14 21:32 37.65787 -8.88764 25895 ft 419 kts 340°
2026-04-14 21:32 37.68546 -8.89875 25374 ft 413 kts 341°
2026-04-14 21:32 37.71269 -8.90968 24863 ft 408 kts 341°
2026-04-14 21:33 37.73952 -8.92048 24365 ft 402 kts 341°
2026-04-14 21:33 37.76601 -8.93124 23872 ft 398 kts 341°
2026-04-14 21:33 37.79218 -8.94196 23288 ft 393 kts 341°
2026-04-14 21:33 37.81813 -8.95262 22698 ft 390 kts 341°
2026-04-14 21:34 37.84382 -8.96316 22146 ft 387 kts 341°
2026-04-14 21:34 37.86932 -8.97356 21597 ft 384 kts 341°
2026-04-14 21:34 37.89463 -8.98386 21051 ft 381 kts 341°
2026-04-14 21:34 37.91986 -8.99412 20511 ft 378 kts 341°
2026-04-14 21:35 37.94485 -9.00429 19985 ft 375 kts 341°
2026-04-14 21:35 37.96965 -9.01441 19466 ft 373 kts 341°
2026-04-14 21:35 37.99428 -9.02450 18960 ft 371 kts 341°
2026-04-14 21:35 38.01876 -9.03460 18445 ft 369 kts 341°
2026-04-14 21:36 38.04309 -9.04485 17861 ft 367 kts 340°
2026-04-14 21:36 38.06692 -9.05497 17307 ft 366 kts 340°
2026-04-14 21:36 38.09102 -9.06521 16743 ft 364 kts 340°
2026-04-14 21:36 38.11500 -9.07539 16199 ft 363 kts 340°
2026-04-14 21:37 38.13891 -9.08553 15661 ft 362 kts 340°
2026-04-14 21:37 38.16270 -9.09563 15131 ft 360 kts 340°
2026-04-14 21:37 38.18664 -9.10487 14610 ft 359 kts 345°
2026-04-14 21:37 38.21089 -9.11225 14097 ft 358 kts 346°
2026-04-14 21:38 38.23511 -9.11924 13530 ft 356 kts 346°
2026-04-14 21:38 38.25919 -9.12606 12967 ft 354 kts 346°
2026-04-14 21:38 38.28319 -9.13283 12412 ft 351 kts 346°
2026-04-14 21:38 38.30694 -9.13956 11875 ft 348 kts 346°
2026-04-14 21:39 38.33047 -9.14628 11330 ft 342 kts 346°
2026-04-14 21:39 38.35316 -9.15281 10804 ft 326 kts 345°
2026-04-14 21:39 38.37482 -9.15908 10288 ft 313 kts 346°
2026-04-14 21:39 38.39564 -9.16511 9735 ft 302 kts 346°
2026-04-14 21:40 38.41580 -9.17094 9171 ft 292 kts 345°
2026-04-14 21:40 38.43527 -9.17659 8593 ft 282 kts 346°
2026-04-14 21:40 38.45417 -9.18209 8067 ft 275 kts 346°
2026-04-14 21:40 38.47263 -9.18746 7524 ft 268 kts 346°
2026-04-14 21:41 38.49063 -9.19272 7003 ft 262 kts 345°
2026-04-14 21:41 38.50821 -9.19783 6451 ft 256 kts 345°
2026-04-14 21:41 38.52542 -9.20281 5894 ft 251 kts 346°
2026-04-14 21:41 38.54170 -9.20943 5348 ft 246 kts 337°
2026-04-14 21:42 38.55750 -9.21757 4790 ft 243 kts 336°
2026-04-14 21:42 38.57293 -9.22588 4379 ft 234 kts 335°
2026-04-14 21:42 38.58811 -9.23171 4060 ft 224 kts 354°
2026-04-14 21:42 38.60329 -9.23032 3804 ft 216 kts 14°
2026-04-14 21:43 38.61254 -9.22598 3630 ft 211 kts 21°
2026-04-14 21:43 38.62594 -9.21883 3367 ft 203 kts 20°
2026-04-14 21:43 38.64256 -9.20997 2997 ft 188 kts 21°
2026-04-14 21:43 38.65429 -9.20372 2766 ft 177 kts 20°
2026-04-14 21:44 38.66172 -9.19976 2598 ft 165 kts 20°
2026-04-14 21:44 38.67173 -9.19442 2410 ft 149 kts 20°
2026-04-14 21:44 38.68095 -9.18951 2193 ft 140 kts 19°
2026-04-14 21:44 38.68979 -9.18480 2008 ft 135 kts 19°
2026-04-14 21:45 38.69837 -9.18023 1824 ft 132 kts 19°
2026-04-14 21:45 38.70686 -9.17571 1646 ft 131 kts 19°
2026-04-14 21:45 38.71525 -9.17123 1467 ft 131 kts 19°
2026-04-14 21:45 38.72367 -9.16674 1293 ft 131 kts 19°
2026-04-14 21:46 38.73205 -9.16227 1109 ft 130 kts 19°
2026-04-14 21:46 38.74042 -9.15780 935 ft 131 kts 20°
2026-04-14 21:46 38.74885 -9.15330 750 ft 131 kts 19°
2026-04-14 21:46 38.75730 -9.14879 587 ft 135 kts 18°
2026-04-14 21:47 38.76593 -9.14414 405 ft 134 kts 19°
2026-04-14 21:47 38.77403 -9.13990 362 ft 106 kts 22°
2026-04-14 21:47 38.77924 -9.13705 365 ft 57 kts 22°
2026-04-14 21:47 38.78173 -9.13569 367 ft 33 kts 26°
2026-04-14 21:48 38.78304 -9.13445 364 ft 15 kts 46°
2026-04-14 21:48 38.78359 -9.13368 363 ft 9 kts 47°
2026-04-14 21:48 38.78381 -9.13317 362 ft 0 kts 84°
2026-04-14 21:49 38.78380 -9.13312 362 ft 3 kts 90°
2026-04-14 21:50 38.78355 -9.13266 362 ft 8 kts 153°
2026-04-14 21:50 38.78300 -9.13275 365 ft 7 kts 202°
2026-04-14 21:50 38.78256 -9.13299 361 ft 7 kts 202°
2026-04-14 21:50 38.78212 -9.13321 362 ft 7 kts 202°
2026-04-14 21:51 38.78166 -9.13345 362 ft 10 kts 202°
2026-04-14 21:51 38.78073 -9.13395 362 ft 15 kts 202°
2026-04-14 21:51 38.77980 -9.13445 364 ft 14 kts 202°
2026-04-14 21:51 38.77891 -9.13493 361 ft 13 kts 202°
2026-04-14 21:52 38.77801 -9.13505 358 ft 14 kts 169°
2026-04-14 21:52 38.77697 -9.13478 353 ft 16 kts 168°
2026-04-14 21:52 38.77582 -9.13447 345 ft 18 kts 168°
2026-04-14 21:52 38.77461 -9.13414 346 ft 18 kts 168°
2026-04-14 21:53 38.77368 -9.13390 345 ft 10 kts 171°
2026-04-14 21:53 38.77313 -9.13418 349 ft 7 kts 231°
2026-04-14 21:53 38.77298 -9.13468 351 ft 8 kts 241°
2026-04-14 21:53 38.77232 -9.13485 354 ft 11 kts 168°
2026-04-14 21:54 38.77162 -9.13466 346 ft 10 kts 168°
2026-04-14 21:54 38.77075 -9.13443 346 ft 17 kts 168°
2026-04-14 21:54 38.76932 -9.13405 345 ft 23 kts 168°
2026-04-14 21:54 38.76794 -9.13367 343 ft 12 kts 168°
2026-04-14 21:55 38.76724 -9.13403 355 ft 10 kts 213°
2026-04-14 21:55 38.76674 -9.13445 345 ft 7 kts 213°
2026-04-14 21:55 38.76628 -9.13477 350 ft 9 kts 194°
2026-04-14 21:55 38.76562 -9.13461 346 ft 9 kts 163°
2026-04-14 21:56 38.76501 -9.13438 345 ft 9 kts 164°
2026-04-14 21:56 38.76488 -9.13393 345 ft 3 kts 71°
2026-04-14 21:56 38.76492 -9.13376 346 ft 0 kts 75°
2026-04-14 21:56 38.76494 -9.13369 345 ft 2 kts 71°
2026-04-14 21:57 38.76494 -9.13368 345 ft 0 kts 72°